EW4629 Weather Reports


time (UTC)temp
C
wind
direction
speed
KPH
gust
KPH
rain 1hr
cm
rain 24hr
cm
rain mn
cm
humidity
%
barometer
mb
20260505024537 17 228 0.0 0.0 0.00 0.00 0.00 1 1011.4
20260505023020 17 210 0.0 0.0 0.00 0.00 0.00 1 1011.3
20260505021514 17 220 0.0 0.0 0.00 0.00 0.00 1 1011.3
20260505020016 18 226 0.0 0.0 0.00 0.00 0.00 1 1011.3
20260505014506 18 166 0.0 0.0 0.00 0.00 0.00 15 1011.3
20260505013001 18 245 0.0 0.0 0.00 0.00 0.00 26 1011.3
20260505011556 18 262 0.0 0.0 0.00 0.00 0.00 33 1011.2
20260505010055 18 240 0.0 0.0 0.00 0.00 0.00 40 1011.0
20260505004554 19 199 0.0 0.0 0.00 0.00 0.00 45 1010.9
20260505003044 20 226 0.0 0.0 0.00 0.00 0.00 52 1010.8
20260505001543 20 299 0.0 0.0 0.00 0.00 0.00 53 1010.8
20260505000035 21 194 0.0 0.0 0.00 0.00 0.00 48 1010.8
20260504234531 21 210 0.0 0.0 0.00 0.00 0.00 46 1010.7
20260504233028 21 241 0.0 0.0 0.00 0.00 0.00 44 1010.6
20260504231521 22 236 0.0 0.0 0.00 0.00 0.00 43 1010.6
20260504230018 22 222 0.0 0.0 0.00 0.00 0.00 42 1010.6
20260504224513 23 205 0.0 0.0 0.00 0.00 0.00 42 1010.6
20260504223009 23 224 0.0 0.0 0.00 0.00 0.00 40 1010.6
20260504221504 23 205 0.0 0.0 0.00 0.00 0.00 40 1010.6
20260504220107 23 193 0.0 0.0 0.00 0.00 0.00 38 1010.6
20260504214604 23 167 0.0 0.0 0.00 0.00 0.00 40 1010.8
20260504213055 23 235 0.0 0.0 0.00 0.00 0.00 40 1010.9
20260504211546 23 91 0.0 0.0 0.00 0.00 0.00 39 1010.8
20260504210055 23 287 0.0 0.0 0.00 0.00 0.00 39 1010.9
20260504204553 23 261 0.0 0.0 0.00 0.00 0.00 39 1010.8
20260504203036 22 293 0.0 0.0 0.00 0.00 0.00 41 1011.0
20260504201530 23 168 0.0 0.0 0.00 0.00 0.00 39 1011.3
20260504200026 23 243 0.0 3.2 0.00 0.00 0.00 37 1011.4
20260504194522 23 191 0.0 0.0 0.00 0.00 0.00 35 1011.4
20260504193018 23 272 0.0 0.0 0.00 0.00 0.00 35 1011.5
20260504191512 23 274 0.0 0.0 0.00 0.00 0.00 33 1011.8
20260504190008 23 264 0.0 0.0 0.00 0.00 0.00 34 1011.8
20260504184503 23 195 0.0 0.0 0.00 0.00 0.00 34 1012.0
20260504183105 23 243 0.0 0.0 0.00 0.00 0.00 33 1012.2
20260504181555 23 236 0.0 0.0 0.00 0.00 0.00 34 1012.4
20260504180105 22 308 0.0 0.0 0.00 0.00 0.00 34 1012.8
20260504174547 23 184 0.0 0.0 0.00 0.00 0.00 33 1012.6
20260504173049 22 233 0.0 0.0 0.00 0.00 0.00 32 1012.9
20260504171538 22 245 0.0 0.0 0.00 0.00 0.00 33 1013.1
20260504081501 13 238 0.0 0.0 0.00 0.00 0.00 1 1015.7
20260504050007 11 229 0.0 0.0 0.00 0.00 0.00 11 1016.1
20260504044509 11 273 0.0 0.0 0.00 0.00 0.00 13 1016.1
20260504043101 10 232 0.0 0.0 0.00 0.00 0.00 21 1016.0
20260504041602 10 231 0.0 0.0 0.00 0.00 0.00 33 1015.9
20260504040055 10 251 0.0 0.0 0.00 0.00 0.00 37 1015.7
20260504034559 10 271 0.0 0.0 0.00 0.00 0.00 44 1015.7
20260504033051 10 274 0.0 0.0 0.00 0.00 0.00 49 1015.5
20260504031551 10 274 0.0 0.0 0.00 0.00 0.00 52 1015.5
20260504030050 10 278 0.0 0.0 0.00 0.00 0.00 53 1015.4